Regional Weather Roundup
Issued by NWS

Home | Current Version | Previous Version | Graphics & Text | Print | Product List | Glossary On
Versions: 1 2 3 4 5 6 7 8 9 10 11 12 13 14 15 16 17 18 19 20 21 22 23 24 25 26 27 28 29 30 31 32 33 34 35 36 37 38 39 40 41 42 43 44 45 46 47 48 49 50
091
ASUS43 KIND 042059
RWRIN

WEATHER ROUNDUP FOR INDIANA
NATIONAL WEATHER SERVICE INDIANAPOLIS IN
400 PM EST SUN DEC 04 2016

NOTE: "FAIR" INDICATES FEW OR NO CLOUDS BELOW 12,000 FEET WITH NO
SIGNIFICANT WEATHER AND/OR OBSTRUCTIONS TO VISIBILITY.

* - STATION DOES NOT REPORT WEATHER SUCH AS PRECIPITATION OR FOG.

+ - STATION NOT QUALITY CONTROLLED BY THE NATIONAL WEATHER SERVICE.
    USE DATA WITH CAUTION...ESPECIALLY DEWPOINT AND RELATIVE
    HUMIDITY OBSERVATIONS.

INZ001>003-010>013-019-020-042200-
NORTHWEST INDIANA

CITY           SKY/WX    TMP DP  RH WIND       PRES   REMARKS
GARY /AIRPORT/ SNOW      34  34 100 CALM      29.93  VSB 1/2

$$

LMZ046-743>745-042200-
SOUTHERN LAKE MICHIGAN

STATION/POSITION TIME  TEMP    WIND        PRES    WAVE
                       AIR SEA DIR/SP/G            HT
                 (UTC) (F)     (DEG/KT/KT) (MB)    (FT)
BURNS HARBOR     2040   33      80/  7/  9 1013.9F

$$

INZ004-005-014>016-021>024-042200-
NORTH CENTRAL INDIANA

CITY           SKY/WX    TMP DP  RH WIND       PRES   REMARKS
GOSHEN         LGT SNOW  33  30  88 E10       29.94F VSB 3/4 WCI  25
PERU/GRISSOM   LGT SNOW  32  32 100 E8        29.91R VSB 1   WCI  25
SOUTH BEND     SNOW      32  31  96 SE9       29.94F VSB 1/2 WCI  24

$$

INZ006>009-017-018-025>027-042200-
NORTHEAST INDIANA

CITY           SKY/WX    TMP DP  RH WIND       PRES   REMARKS
ANGOLA *+      CLOUDY    34  32  93 E6        29.97F WCI  29
FORT WAYNE     LGT SNOW  35  32  88 E9        29.95F FOG     WCI  28
KENDALLVILLE + LGT SNOW  33  32  96 E6        29.96F VSB 1   WCI  27

$$

INZ028-029-035-036-043>045-051>053-042200-
WEST CENTRAL INDIANA

CITY           SKY/WX    TMP DP  RH WIND       PRES   REMARKS
CRAWFORDSVL +  LGT SNOW  36  36 100 E5        29.90S
GREENCASTLE +  LGT RAIN  37  37 100 SE3       29.89F
LAFAYETTE      LGT SNOW  32  32 100 E8        29.91F VSB 1   WCI  25
TERRE HAUTE    LGT RAIN  40  38  93 SW5       29.91R FOG

$$

INZ030>032-037>040-046>048-054>057-064-065-042200-
CENTRAL INDIANA

CITY           SKY/WX    TMP DP  RH WIND       PRES   REMARKS
COLUMBUS       LGT RAIN  39  39 100 SE6       29.91F FOG
INDIANAPOLIS   LGT RAIN  38  37  97 E6        29.90S VSB 1
-EAGLE CREEK   LGT RAIN  39  36  89 SE7       29.90S FOG
KOKOMO +       LGT SNOW  33  31  92 E6        29.94R VSB 1   WCI  28
SHELBYVILLE    LGT RAIN  40  37  89 SE5       29.91R FOG

$$

INZ033-034-041-042-049-050-058-059-042200-
EAST CENTRAL INDIANA

CITY           SKY/WX    TMP DP  RH WIND       PRES   REMARKS
MUNCIE         LGT RAIN  38  34  85 SE10      29.92S FOG

$$

INZ060-061-067>069-081>083-085>088-042200-
SOUTHWEST INDIANA

CITY           SKY/WX    TMP DP  RH WIND       PRES   REMARKS
EVANSVILLE     LGT RAIN  44  42  93 S7        29.93S FOG
HUNTINGBURG *+ CLOUDY    45  43  93 SW7       29.93R

$$

INZ062-063-066-070>080-084-089>092-042200-
SOUTH CENTRAL AND SOUTHEAST INDIANA

CITY           SKY/WX    TMP DP  RH WIND       PRES   REMARKS
BLOOMINGTON    LGT RAIN  41  39  93 SE7       29.89S FOG
MADISON *+     CLOUDY    43  39  87 SE3       29.92F

$$





USA.gov is the U.S. government's official web portal to all federal, state and local government web resources and services.